{"data":{"norad_id":45581,"epoch":"2026-05-25T02:22:10.504416Z","epoch_age_seconds":76570,"freshness":"FRESH","line1":"1 45581U 20025BC  26145.09873269  .00043488  00000+0  12537-2 0  9990","line2":"2 45581  53.1534  79.1523 0004367  79.1092 281.0402 15.35311643337249","mean_motion":15.35311643,"eccentricity":0.0004367,"inclination_deg":53.1534,"raan_deg":79.1523,"arg_perigee_deg":79.1092,"mean_anomaly_deg":281.0402,"bstar":0.0012537,"rev_number":33724,"period_min":93.792032814018,"perigee_km":457.00877370241,"apogee_km":462.98119817893,"semimajor_km":6838.1319859407,"source":"CELESTRAK","updated_at":"2026-05-25T13:38:16.425082Z"}}